User: anonymous   Login
Location: Unspecified
(0.0000°N, 0.0000°E)
Time: 18:22:32
(UTC+00:00)
Language:

ISS - Orbit

View from above orbital plane
View from above orbital plane
View from above satellite
View from above satellite

Ground track
Ground track

The orbit data is extracted from the following two-line orbital elements,

1 25544U 98067A   18055.54493345  .00016717  00000-0  10270-3 0  9036
2 25544  51.6356 220.2642 0003205 130.7876 229.3555 15.54108786 20994
Epoch (UTC): 24 February 2018 13:04:42
Eccentricity: 0.0003205
inclination: 51.6356°
perigee height: 402 km
apogee height: 407 km
right ascension of ascending node: 220.2642°
argument of perigee: 130.7876°
revolutions per day: 15.54108786
mean anomaly at epoch: 229.3555°
orbit number at epoch: 2099

The dashed part of the orbit path shows where the satellite is in the earth's shadow,  

DLR